Regional Weather Roundup
Issued by NWS Albany, NY

Home | Current Version | Previous Version | Graphics & Text | Print | Product List | Glossary Off
Versions: 1 2 3 4 5 6 7 8 9 10 11 12 13 14 15 16 17 18 19 20 21 22 23 24 25 26 27 28 29 30 31 32 33 34 35 36 37 38 39 40 41 42 43 44 45 46 47 48 49 50

000
ASUS41 KALY 231410
RWRALY

NEW YORK STATE HOURLY WEATHER ROUNDUP
NATIONAL WEATHER SERVICE ALBANY NY
900 AM EST MON JAN 23 2017

NOTE: "FAIR" INDICATES FEW OR NO CLOUDS BELOW 12,000 FEET WITH NO
SIGNIFICANT WEATHER AND/OR NO OBSTRUCTIONS TO VISIBILITY.

NYZ032-033-038>043-046>054-057>066-NYZ062>081-082-084-231500-
EAST


CITY           SKY/WX    TMP DP  RH WIND       PRES   REMARKS
ALBANY         CLOUDY    38  26  62 NE16      29.96S WCI  29
GLENS FALLS    CLOUDY    35  27  72 NE9       29.99R WCI  28
POUGHKEEPSIE   CLOUDY    38  29  70 NE12G18   29.92R WCI  30
NEWBURGH       CLOUDY    37  32  81 E17G29    29.90R WCI  28
MONTGOMERY     CLOUDY    39  31  72 NE15G23   29.88R WCI  31
WHITE PLAINS   CLOUDY    39  29  67 E17G28    29.85S WCI  30
ISLIP          CLOUDY    40  31  70 E18G35    29.85S WCI  31
NEW YORK CITY  CLOUDY    42  31  64 E22G39    29.85F
CENTRAL PARK   CLOUDY    40  31  70 E23G33    29.86F WCI  30
$$

NYZ005>009-017-018-044>046-055-056-231500-
CENTRAL


CITY           SKY/WX    TMP DP  RH WIND       PRES   REMARKS
FULTON         CLOUDY    39  31  72 VRB6      29.83S WCI  35
SYRACUSE       PTSUNNY   38  32  79 E15       29.82F WCI  29
ROME           CLOUDY    38  31  76 E16G26    29.90R WCI  29
ELMIRA         CLOUDY    42  34  73 E10       29.76R
BINGHAMTON     CLOUDY    36  33  89 E12       29.76R WCI  28
MONTICELLO     CLOUDY    34  28  80 E22G36    29.82S WCI  22
$$

NYZ026>034-041>043-087-231500-
NORTH


CITY           SKY/WX    TMP DP  RH WIND       PRES   REMARKS
WATERTOWN      CLOUDY    34  32  92 NE10      29.88S WCI  26
FORT DRUM      NOT AVBL
OGDENSBURG     CLOUDY    32  30  94 NE13      29.96R WCI  22
MASSENA        CLOUDY    31  27  85 NE14      30.01R WCI  21
SARANAC LAKE   CLOUDY    32  28  85 NE10      29.88F WCI  24
PLATTSBURGH    CLOUDY    34  32  92 NW3       30.01F
$$

NYZ001>004-010>016-019>021-085-231500-
WEST


CITY           SKY/WX    TMP DP  RH WIND       PRES   REMARKS
NIAGARA FALLS  CLOUDY    40  37  89 NE14      29.74R FOG     WCI  32
BUFFALO        CLOUDY    40  38  93 NE12      29.74R FOG     WCI  33
DUNKIRK        CLOUDY    39  38  96 NE10      29.69R FOG     WCI  32
JAMESTOWN      CLOUDY    46  39  76 E7        29.66R
WELLSVILLE     CLOUDY    40  36  86 SE13G23   29.72R WCI  32
ROCHESTER      CLOUDY    43  39  86 E8        29.79R
PENN YAN       CLOUDY    42  35  76 E3        29.77F
$$

             KEY
       WCI = WIND CHILL INDEX
       VSB = VISIBILITY
       HX  = HEAT INDEX
$$



USA.gov is the U.S. government's official web portal to all federal, state and local government web resources and services.